Location: Brusselsch Zeekanaal
(50.8667°N, 4.3667°E)
Time: 01:34:29
(UTC+00:00)

Cosmos 1943 Rocket - Pass Details

Date: 08 November 2025
Orbit: 812 x 841 km, 71.0° (Epoch: 13 December)

Event Time Altitude Azimuth Distance (km) Brightness Sun altitude
Exits shadow 05:48:02 - 313° (NW) 2,577 4.2 -9.5°
Reaches altitude 10° 05:48:31 10° 310° (NW) 2,422 4.0 -9.4°
Maximum altitude 05:52:57 25° 257° (WSW) 1,588 3.2 -8.7°
Drops below altitude 10° 05:57:21 10° 203° (SSW) 2,398 4.5 -8.1°
Sets 06:00:08 0° 191° (S) 3,323 5.4 -7.7°
